Home   Weather   Utsunomiya   Past weeks

Flag for Japan Past Weather in Utsunomiya, Japan — Yesterday and Last 2 Weeks

Now
58 °F

Refreshingly cool.


Feels Like: 57 °F
Forecast: 45 / 65 °F
Wind: 7 mph from Southeast

Location: Mito

Current Time: Apr 24, 2017 at 1:04:03 pm

Latest Report: Apr 24, 2017 at 12:00 pm


Visibility: N/A

Pressure: 30.34 "Hg

Humidity: 57%

Dew Point: 43 °F

Location of UtsunomiyaLocation

Past Weather in Utsunomiya — Graph

°F

Utsunomiya Temperature Yesterday

Maximum temperature yesterday: 59 °F (at 11:00 am)
Minimum temperature yesterday: 45 °F (at 11:00 pm)
Average temperature yesterday: 53 °F

High & Low Weather Summary for the Past Weeks

 TemperatureHumidityPressure
High80 °F (Apr 16, 2:00 pm)97% (Apr 11, 5:00 pm)30.37 "Hg (Apr 11, 5:00 pm)
Low37 °F (Apr 14, 5:00 am)15% (Apr 16, 2:00 pm)29.21 "Hg (Apr 18, 12:00 pm)
Average56 °F65%29.84 "Hg
* Reported Apr 9 11:00 am — Apr 24 11:00 am, Utsunomiya, Weather by CustomWeather, © 2017

Note: Actual official high and low records may vary slightly from our data, if they occured in-between our weather recording intervals... More about our weather records

Advertising

Utsunomiya Weather History for the Previous 24 Hours

Scroll right to see more
 ConditionsComfort  
Time TempWeatherWind HumidityBarometerVisibility
11:00 am
Mon, Apr 24
58 °FRefreshingly cool.6 mph59%30.36 "HgN/A
10:00 am56 °FRefreshingly cool.5 mph58%30.37 "HgN/A
9:00 am56 °FPassing clouds.8 mph60%30.37 "Hg16 mi
8:00 am51 °FCool.2 mph76%30.37 "HgN/A
7:00 am47 °FCool.2 mph83%30.35 "HgN/A
6:00 am44 °FQuite cool.2 mph89%30.34 "HgN/A
5:00 am42 °FQuite cool.3 mph90%30.32 "HgN/A
4:00 am43 °FQuite cool.3 mph90%30.29 "HgN/A
3:00 am43 °FOvercast.2 mph89%30.28 "Hg12 mi
2:00 am42 °FQuite cool.2 mph89%30.27 "HgN/A
1:00 am43 °FQuite cool.5 mph86%30.26 "HgN/A
12:00 am44 °FQuite cool.3 mph83%30.26 "HgN/A
11:00 pm
Sun, Apr 23
45 °FCool.3 mph84%30.25 "HgN/A
10:00 pm49 °FCool.2 mph70%30.24 "HgN/A
9:00 pm51 °FClear.3 mph61%30.22 "Hg12 mi
8:00 pm52 °FCool.3 mph57%30.18 "HgN/A
7:00 pm53 °FCool.7 mph53%30.14 "HgN/A
6:00 pm54 °FCool.12 mph51%30.11 "HgN/A
5:00 pm55 °FRefreshingly cool.10 mph45%30.09 "HgN/A
4:00 pm57 °FRefreshingly cool.8 mph44%30.06 "HgN/A
3:00 pm57 °FPassing clouds.10 mph42%30.05 "Hg19 mi
2:00 pm58 °FRefreshingly cool.12 mph43%30.04 "HgN/A
1:00 pm59 °FRefreshingly cool.12 mph45%30.03 "HgN/A
Weather by CustomWeather, © 2017

See weather overviewHow to use our weather pages